Location: Bieujac
(44.5398°N, 0.1549°W)
Time: 11:19:18
(UTC+00:00)

Cosmos 1238 Rocket - Pass Details

Date: 17 November 2019
Orbit: 374 x 1033 km, 82.9° (Epoch: 06 December)

Event Time Altitude Azimuth Distance (km) Brightness Sun altitude
Rises 06:23:20 0° 197° (SSW) 3,774 7.1 -6.7°
Reaches altitude 10° 06:25:59 10° 201° (SSW) 2,817 6.4 -6.3°
Maximum altitude 06:32:31 61° 280° (W) 1,109 4.1 -5.2°
Drops below altitude 10° 06:38:29 10° 1° (N) 2,587 6.0 -4.2°
Sets 06:40:51 0° 5° (N) 3,446 6.7 -3.8°
